User: anonymous   Login
Location: B?jaj?g
(11.7167°N, 92.6667°E)
Time: 05:57:46
(UTC+00:00)
Language:

Timation 1 Rocket - Orbit

View from above orbital plane
View from above orbital plane
View from above satellite
View from above satellite

Ground track
Ground track

The orbit data is extracted from the following two-line orbital elements,

1  2825U 67053B   20339.58244916  .00000001  00000-0  38812-4 0  9991
2  2825  69.9724  89.0590 0010256 276.6057  95.1402 13.97164144810284
Epoch (UTC): 04 December 2020 13:58:43
Eccentricity: 0.0010256
inclination: 69.9724°
perigee height: 896 km
apogee height: 911 km
right ascension of ascending node: 89.0590°
argument of perigee: 276.6057°
revolutions per day: 13.97164144
mean anomaly at epoch: 95.1402°
orbit number at epoch: 81028

The dashed part of the orbit path shows where the satellite is in the earth's shadow,  

DLR